CW8284 Weather Reports


Display with metric or nautical units.
time (UTC)temp
F
wind
direction
speed
MPH
gust
MPH
rain 1hr
in
rain 24hr
in
rain mn
in
humidity
%
barometer
mb
20260904014619 75 225 2.0 4.0 0.00 0.00 0.00 1009.6
20260904013918 76 247 1.0 2.0 0.00 0.00 0.00 1009.9
20260904013818 76 202 2.0 4.0 0.00 0.00 0.00 1009.8
20260904013719 76 247 3.0 4.0 0.00 0.00 0.00 1009.5
20260904013318 76 202 1.0 3.0 0.00 0.00 0.00 1009.7
20260904012918 77 157 2.0 4.0 0.00 0.00 0.00 1009.7
20260904012519 77 225 3.0 5.0 0.00 0.00 0.00 1009.5
20260904011219 77 180 4.0 7.0 0.00 0.00 0.00 1009.4
20260904011119 77 202 5.0 6.0 0.00 0.00 0.00 1009.6
20260904011019 77 225 4.0 7.0 0.00 0.00 0.00 1009.4
20260904010919 77 202 5.0 7.0 0.00 0.00 0.00 1009.6
20260904010219 78 225 4.0 7.0 0.00 0.00 0.00 1009.7
20260904005819 78 135 4.0 7.0 0.00 0.00 0.00 1009.6
20260904005418 78 180 1.0 2.0 0.00 0.00 0.00 1009.7
20260904005319 78 112 1.0 2.0 0.00 0.00 0.00 1009.4
20260904005219 78 180 2.0 3.0 0.00 0.00 0.00 1009.7
20260904005119 78 202 1.0 2.0 0.00 0.00 0.00 1009.4
20260904004718 79 180 5.0 8.0 0.00 0.00 0.00 1009.4
20260904004619 79 202 2.0 4.0 0.00 0.00 0.00 1009.4
20260904004519 79 270 3.0 4.0 0.00 0.00 0.00 1009.4
20260904004419 79 225 2.0 3.0 0.00 0.00 0.00 1009.7
20260904004319 79 180 2.0 4.0 0.00 0.00 0.00 1009.5
20260904003619 79 180 2.0 2.0 0.00 0.00 0.00 1009.5
20260904002919 79 157 4.0 7.0 0.00 0.00 0.00 1009.7
20260904002818 79 202 2.0 3.0 0.00 0.00 0.00 1009.6
20260904002119 79 225 4.0 6.0 0.00 0.00 0.00 1009.4
20260904002018 79 225 5.0 7.0 0.00 0.00 0.00 1009.4
20260904001919 80 225 3.0 6.0 0.00 0.00 0.00 1009.4
20260904001819 80 112 2.0 3.0 0.00 0.00 0.00 1009.6
20260904001418 80 202 3.0 6.0 0.00 0.00 0.00 1009.6
20260904000418 81 180 5.0 7.0 0.00 0.00 0.00 1009.7
20260903235119 81 180 1.0 2.0 0.00 0.00 0.00 1009.5
20260903234718 81 225 3.0 5.0 0.00 0.00 0.00 1009.4
20260903233719 82 225 4.0 7.0 0.00 0.00 0.00 1009.6
20260903233319 82 225 5.0 6.0 0.00 0.00 0.00 1009.7
20260903233219 82 225 4.0 7.0 0.00 0.00 0.00 1009.6
20260903232519 83 247 7.0 9.0 0.00 0.00 0.00 1009.8
20260903232419 83 225 5.0 9.0 0.00 0.00 0.00 1009.8
20260903231718 83 225 4.0 5.0 0.00 0.00 0.00 1009.7
20260903231319 84 225 8.0 12.0 0.00 0.00 0.00 1009.5
20260903230619 86 202 4.0 6.0 0.00 0.00 0.00 1009.9
20260903230519 86 180 2.0 4.0 0.00 0.00 0.00 1009.8
20260903230419 86 180 1.0 2.0 0.00 0.00 0.00 1009.7
20260903230019 88 202 6.0 10.0 0.00 0.00 0.00 1009.9
20260903225919 88 202 1.0 2.0 0.00 0.00 0.00 1009.9
20260903225819 88 112 1.0 2.0 0.00 0.00 0.00 1009.9
20260903225719 88 225 3.0 6.0 0.00 0.00 0.00 1009.9
20260903225619 88 225 2.0 4.0 0.00 0.00 0.00 1009.9
20260903225519 89 202 4.0 7.0 0.00 0.00 0.00 1010.0
20260903225118 89 157 2.0 2.0 0.00 0.00 0.00 1009.9
20260903224718 89 157 2.0 3.0 0.00 0.00 0.00 1009.8
20260903224319 90 202 5.0 9.0 0.00 0.00 0.00 1009.9
20260903223619 90 180 2.0 4.0 0.00 0.00 0.00 1009.9
20260903223519 90 315 1.0 3.0 0.00 0.00 0.00 1009.9
20260903223118 90 45 1.0 4.0 0.00 0.00 0.00 1010.2
20260903223018 90 157 2.0 3.0 0.00 0.00 0.00 1010.3
20260903222918 90 202 6.0 11.0 0.00 0.00 0.00 1010.1
20260903220419 88 247 4.0 7.0 0.00 0.00 0.00 1010.3
20260903220019 89 180 2.0 3.0 0.00 0.00 0.00 1010.4
20260903215618 88 90 1.0 3.0 0.00 0.00 0.00 1010.5
20260903215519 88 225 6.0 9.0 0.00 0.00 0.00 1010.5
20260903215118 89 202 4.0 6.0 0.00 0.00 0.00 1010.5
20260903215019 90 202 5.0 7.0 0.00 0.00 0.00 1010.6
20260903214919 90 225 6.0 8.0 0.00 0.00 0.00 1010.6
20260903214819 90 292 3.0 6.0 0.00 0.00 0.00 1010.4
20260903214718 90 112 1.0 2.0 0.00 0.00 0.00 1010.6
20260903214018 92 157 2.0 4.0 0.00 0.00 0.00 1010.4
20260903213919 92 202 3.0 7.0 0.00 0.00 0.00 1010.5
20260903213818 93 225 5.0 8.0 0.00 0.00 0.00 1010.5
20260903213719 93 180 2.0 4.0 0.00 0.00 0.00 1010.6
20260903213319 91 225 2.0 5.0 0.00 0.00 0.00 1010.4
20260903213219 91 157 2.0 5.0 0.00 0.00 0.00 1010.6
20260903212818 89 157 3.0 5.0 0.00 0.00 0.00 1010.6
20260903211819 89 225 3.0 4.0 0.00 0.00 0.00 1010.7
20260903210819 87 292 1.0 4.0 0.00 0.00 0.00 1010.7
20260903205819 87 247 6.0 8.0 0.00 0.00 0.00 1011.0
20260903205718 87 225 4.0 5.0 0.00 0.00 0.00 1011.0
20260903205619 87 202 3.0 5.0 0.00 0.00 0.00 1010.9
20260903204919 87 315 4.0 5.0 0.00 0.00 0.00 1011.0
20260903202718 87 202 2.0 4.0 0.00 0.00 0.00 1011.1
20260903202319 87 225 1.0 3.0 0.00 0.00 0.00 1011.1
20260903202218 86 22 3.0 4.0 0.00 0.00 0.00 1011.1
20260903202119 86 315 2.0 3.0 0.00 0.00 0.00 1011.2
20260903202019 86 67 3.0 4.0 0.00 0.00 0.00 1011.2
20260903201618 85 67 1.0 2.0 0.00 0.00 0.00 1011.1
20260903200618 85 112 1.0 4.0 0.00 0.00 0.00 1011.4
20260903200519 85 225 1.0 3.0 0.00 0.00 0.00 1011.3
20260903200419 85 22 2.0 3.0 0.00 0.00 0.00 1011.3
20260903200318 85 45 2.0 3.0 0.00 0.00 0.00 1011.5
20260903200219 85 112 1.0 2.0 0.00 0.00 0.00 1011.2
20260903200119 85 0 0.0 1.0 0.00 0.00 0.00 1011.2
20260903200018 85 202 2.0 3.0 0.00 0.00 0.00 1011.4
20260903195918 84 157 1.0 3.0 0.00 0.00 0.00 1011.4
20260903195819 84 112 2.0 4.0 0.00 0.00 0.00 1011.4
20260903195719 84 225 1.0 4.0 0.00 0.00 0.00 1011.8
20260903195018 84 225 2.0 5.0 0.00 0.00 0.00 1011.6
20260903194319 83 112 1.0 3.0 0.00 0.00 0.00 1011.6
20260903193618 81 225 3.0 4.0 0.00 0.00 0.00 1012.0
20260903193519 81 270 2.0 5.0 0.00 0.00 0.00 1012.0
20260903193418 81 180 4.0 6.0 0.00 0.00 0.00 1011.9
20260903193019 81 135 2.0 4.0 0.00 0.00 0.00 1012.0
20260903191419 81 157 1.0 1.0 0.00 0.00 0.00 1012.0
20260903191018 81 315 3.0 5.0 0.00 0.00 0.00 1012.0
20260903190919 81 292 3.0 4.0 0.00 0.00 0.00 1012.0
20260903190518 82 225 4.0 6.0 0.00 0.00 0.00 1011.9
20260903190119 83 202 2.0 4.0 0.00 0.00 0.00 1012.4
20260903185718 82 202 1.0 2.0 0.00 0.00 0.00 1012.6
20260903185619 82 270 2.0 3.0 0.00 0.00 0.00 1012.6
20260903185519 82 225 1.0 2.0 0.00 0.00 0.00 1012.5
20260903185118 83 112 0.0 1.0 0.00 0.00 0.00 1012.6
20260903184719 83 0 1.0 2.0 0.00 0.00 0.00 1012.6
20260903184619 83 112 1.0 2.0 0.00 0.00 0.00 1012.7
20260903183319 79 157 2.0 3.0 0.00 0.00 0.00 1012.7
20260903183218 78 135 2.0 3.0 0.00 0.00 0.00 1012.8
20260903181919 79 135 1.0 2.0 0.00 0.00 0.00 1012.7
20260903180919 79 180 1.0 2.0 0.00 0.00 0.00 1013.0
20260903180518 80 202 1.0 2.0 0.00 0.00 0.00 1013.1
20260903180119 80 225 0.0 1.0 0.00 0.00 0.00 1013.0
20260903173918 79 202 1.0 2.0 0.00 0.00 0.00 1013.2
20260903173818 79 247 2.0 2.0 0.00 0.00 0.00 1013.4
20260903173718 80 247 1.0 2.0 0.00 0.00 0.00 1013.3
20260903173619 80 180 2.0 2.0 0.00 0.00 0.00 1013.3
20260903172919 78 135 1.0 2.0 0.00 0.00 0.00 1013.3
20260903171918 76 225 1.0 3.0 0.00 0.00 0.00 1013.4
20260903171218 77 22 1.0 2.0 0.00 0.00 0.00 1013.3
20260903170819 77 135 1.0 2.0 0.00 0.00 0.00 1013.4
20260903170719 78 0 2.0 3.0 0.00 0.00 0.00 1013.3
20260903170619 78 292 3.0 5.0 0.00 0.00 0.00 1013.3
20260903170518 79 292 3.0 4.0 0.00 0.00 0.00 1013.3
20260903170419 79 225 1.0 3.0 0.00 0.00 0.00 1013.3
20260903170019 79 67 0.0 1.0 0.00 0.00 0.00 1013.1
20260903165619 77 135 2.0 3.0 0.00 0.00 0.00 1013.4
20260903165219 77 225 1.0 2.0 0.00 0.00 0.00 1013.2
20260903164818 76 202 1.0 3.0 0.00 0.00 0.00 1013.2
20260903164719 76 180 2.0 3.0 0.00 0.00 0.00 1013.2
20260903164619 76 112 1.0 2.0 0.00 0.00 0.00 1013.2
20260903164518 75 157 1.0 2.0 0.00 0.00 0.00 1013.4
20260903163818 75 135 2.0 3.0 0.00 0.00 0.00 1013.1
20260903163119 75 247 1.0 2.0 0.00 0.00 0.00 1013.2
20260903163019 75 180 1.0 2.0 0.00 0.00 0.00 1013.4
20260903162919 75 135 2.0 3.0 0.00 0.00 0.00 1013.4
20260903162819 75 315 2.0 3.0 0.00 0.00 0.00 1013.5
20260903162719 75 90 1.0 2.0 0.00 0.00 0.00 1013.4
20260903162619 75 337 1.0 2.0 0.00 0.00 0.00 1013.6
20260903162219 74 22 1.0 3.0 0.00 0.00 0.00 1013.5
20260903162119 74 22 1.0 2.0 0.00 0.00 0.00 1013.5
20260903161418 73 292 1.0 2.0 0.00 0.00 0.00 1013.5
20260903161019 73 337 0.0 1.0 0.00 0.00 0.00 1013.4
20260903160919 73 337 1.0 1.0 0.00 0.00 0.00 1013.4
20260903160819 72 90 1.0 2.0 0.00 0.00 0.00 1013.3
20260903160719 72 315 1.0 1.0 0.00 0.00 0.00 1013.4
20260903160619 72 135 1.0 2.0 0.00 0.00 0.00 1013.4
20260903160518 71 112 0.0 2.0 0.00 0.00 0.00 1013.4
20260903160418 71 315 0.0 1.0 0.00 0.00 0.00 1013.3
20260903160019 71 337 3.0 4.0 0.00 0.00 0.00 1013.5
20260903155919 71 315 2.0 3.0 0.00 0.00 0.00 1013.6
20260903155818 71 22 3.0 3.0 0.00 0.00 0.00 1013.5
20260903155718 71 22 3.0 4.0 0.00 0.00 0.00 1013.4
20260903155319 70 337 2.0 4.0 0.00 0.00 0.00 1013.5
20260903155218 70 45 2.0 3.0 0.00 0.00 0.00 1013.5
20260903154219 71 180 0.0 1.0 0.00 0.00 0.00 1013.3
20260903153218 71 112 0.0 1.0 0.00 0.00 0.00 1013.4
20260903152819 69 180 0.0 0.0 0.00 0.00 0.00 1013.5
20260903152420 68 135 1.0 2.0 0.00 0.00 0.00 1013.3
20260903152319 68 202 0.0 0.0 0.00 0.00 0.00 1013.2
20260903151919 67 112 0.0 0.0 0.00 0.00 0.00 1013.3
20260903151519 67 247 0.0 1.0 0.00 0.00 0.00 1013.2
20260903151419 67 135 1.0 1.0 0.00 0.00 0.00 1013.4
20260903145519 67 157 0.0 0.0 0.00 0.00 0.00 1013.2
20260903145119 66 45 0.0 0.0 0.00 0.00 0.00 1013.3
20260903144119 68 225 0.0 0.0 0.00 0.00 0.00 1013.4
20260903144019 68 180 0.0 0.0 0.00 0.00 0.00 1013.2
20260903143918 68 180 0.0 1.0 0.00 0.00 0.00 1013.1
20260903143820 68 157 0.0 0.0 0.00 0.00 0.00 1013.3
20260903143418 68 202 0.0 0.0 0.00 0.00 0.00 1012.9
20260903142419 66 202 0.0 0.0 0.00 0.00 0.00 1012.4
20260903142318 65 202 0.0 0.0 0.00 0.00 0.00 1012.9
20260903142219 65 202 0.0 0.0 0.00 0.00 0.00 1012.6
20260903141818 64 45 0.0 0.0 0.00 0.00 0.00 1012.4
20260903141718 64 45 0.0 0.0 0.00 0.00 0.00 1012.8
20260903141618 64 45 0.0 0.0 0.00 0.00 0.00 1012.6
20260903140319 59 45 0.0 0.0 0.00 0.00 0.00 1012.4
20260903135619 56 202 0.0 0.0 0.00 0.00 0.00 1012.5
20260903135519 56 202 0.0 0.0 0.00 0.00 0.00 1012.5
20260903135119 55 202 0.0 0.0 0.00 0.00 0.00 1012.4
20260903135019 55 202 0.0 0.0 0.00 0.00 0.00 1012.5
20260903134319 55 202 0.0 0.0 0.00 0.00 0.00 1012.6
20260903134219 55 202 0.0 0.0 0.00 0.00 0.00 1012.6
20260903134119 55 202 0.0 0.0 0.00 0.00 0.00 1012.4
20260903132819 55 315 0.0 0.0 0.00 0.00 0.00 1012.5
20260903132419 54 315 0.0 0.0 0.00 0.00 0.00 1012.6
20260903132018 54 315 0.0 0.0 0.00 0.00 0.00 1012.5
20260903131918 55 315 0.0 0.0 0.00 0.00 0.00 1012.6
20260903131819 55 315 0.0 0.0 0.00 0.00 0.00 1012.5
20260903131718 55 315 0.0 0.0 0.00 0.00 0.00 1012.6
20260903131619 55 315 0.0 0.0 0.00 0.00 0.00 1012.5
20260903130919 55 315 0.0 0.0 0.00 0.00 0.00 1012.7
20260903125019 55 202 0.0 0.0 0.00 0.00 0.00 1012.5
20260903124918 55 202 0.0 0.0 0.00 0.00 0.00 1012.5
20260903124519 55 22 0.0 0.0 0.00 0.00 0.00 1012.5
20260903123219 56 0 0.0 1.0 0.00 0.00 0.00 1012.5
20260903122818 56 0 0.0 0.0 0.00 0.00 0.00 1012.6
20260903122719 56 0 0.0 0.0 0.00 0.00 0.00 1012.6
20260903122319 56 0 0.0 1.0 0.00 0.00 0.00 1012.6
20260903122219 56 22 0.0 1.0 0.00 0.00 0.00 1012.6
20260903122118 56 337 1.0 1.0 0.00 0.00 0.00 1012.6
20260903122019 56 337 1.0 2.0 0.00 0.00 0.00 1012.6
20260903121619 56 0 1.0 1.0 0.00 0.00 0.00 1012.6
20260903121219 55 337 0.0 0.0 0.00 0.00 0.00 1012.6
20260903120818 55 22 1.0 1.0 0.00 0.00 0.00 1012.7
20260903120418 55 22 0.0 0.0 0.00 0.00 0.00 1012.7
20260903115419 55 0 0.0 0.0 0.00 0.00 0.00 1012.5
20260903114719 55 0 0.0 0.0 0.00 0.00 0.00 1012.8
20260903114619 55 0 0.0 0.0 0.00 0.00 0.00 1012.7
20260903114518 55 0 0.0 0.0 0.00 0.00 0.00 1012.8
20260903114419 55 0 0.0 0.0 0.00 0.00 0.00 1012.8
20260903114019 56 0 0.0 0.0 0.00 0.00 0.00 1012.8
20260903113919 56 0 0.0 0.0 0.00 0.00 0.00 1012.8
20260903113218 56 0 0.0 0.0 0.00 0.00 0.00 1012.8
20260903112519 56 0 0.0 0.0 0.00 0.00 0.00 1012.8
20260903112118 56 22 0.0 0.0 0.00 0.00 0.00 1012.7
20260903111719 57 22 0.0 0.0 0.00 0.00 0.00 1012.6
20260903111619 57 22 0.0 0.0 0.00 0.00 0.00 1012.8
20260903111219 57 22 0.0 0.0 0.00 0.00 0.00 1012.7
20260903111118 57 22 0.0 0.0 0.00 0.00 0.00 1012.8
20260903111019 57 22 0.0 0.0 0.00 0.00 0.00 1012.8
20260903110018 56 315 0.0 0.0 0.00 0.00 0.00 1012.9
20260903105919 56 0 0.0 1.0 0.00 0.00 0.00 1012.9
20260903105818 56 22 0.0 1.0 0.00 0.00 0.00 1012.9
20260903105419 56 0 0.0 0.0 0.00 0.00 0.00 1013.0
20260903105318 56 0 0.0 0.0 0.00 0.00 0.00 1013.0
20260903104619 56 22 0.0 1.0 0.00 0.00 0.00 1012.8
20260903104519 56 45 0.0 1.0 0.00 0.00 0.00 1013.0
20260903104419 56 45 0.0 0.0 0.00 0.00 0.00 1013.1
20260903104318 56 0 0.0 0.0 0.00 0.00 0.00 1013.0
20260903103919 56 0 0.0 0.0 0.00 0.00 0.00 1013.0
20260903102619 57 0 0.0 0.0 0.00 0.00 0.00 1013.0
20260903102218 57 0 0.0 0.0 0.00 0.00 0.00 1012.9
20260903102118 57 0 0.0 0.0 0.00 0.00 0.00 1013.0
20260903102019 57 0 0.0 0.0 0.00 0.00 0.00 1012.9
20260903101019 58 315 0.0 1.0 0.00 0.00 0.00 1013.1
20260903100919 58 292 0.0 1.0 0.00 0.00 0.00 1012.9
20260903100819 58 337 0.0 1.0 0.00 0.00 0.00 1013.0
20260903100119 57 0 0.0 1.0 0.00 0.00 0.00 1013.0
20260903100018 57 0 0.0 1.0 0.00 0.00 0.00 1013.2
20260903095618 57 337 0.0 1.0 0.00 0.00 0.00 1013.1
20260903094919 57 0 0.0 1.0 0.00 0.00 0.00 1013.1
20260903094819 57 0 0.0 0.0 0.00 0.00 0.00 1013.0
20260903094419 57 22 0.0 1.0 0.00 0.00 0.00 1013.1
20260903094318 57 22 0.0 1.0 0.00 0.00 0.00 1013.0
20260903094219 57 337 0.0 1.0 0.00 0.00 0.00 1013.1
20260903093818 57 0 0.0 0.0 0.00 0.00 0.00 1013.1
20260903093719 57 0 0.0 0.0 0.00 0.00 0.00 1013.1
20260903093319 57 0 0.0 0.0 0.00 0.00 0.00 1013.2
20260903092919 57 0 0.0 0.0 0.00 0.00 0.00 1013.1
20260903092819 57 0 0.0 0.0 0.00 0.00 0.00 1013.2
20260903092419 57 337 0.0 0.0 0.00 0.00 0.00 1013.3
20260903092326 57 337 0.0 0.0 0.00 0.00 0.00 1013.2
20260903092220 57 337 0.0 0.0 0.00 0.00 0.00 1013.2
20260903091819 58 337 0.0 0.0 0.00 0.00 0.00 1013.4
20260903091719 58 337 0.0 0.0 0.00 0.00 0.00 1013.3
20260903091333 58 337 0.0 0.0 0.00 0.00 0.00 1013.3
20260903091220 57 337 0.0 0.0 0.00 0.00 0.00 1013.2
20260903090219 57 0 0.0 0.0 0.00 0.00 0.00 1013.3
20260903090119 58 0 0.0 0.0 0.00 0.00 0.00 1013.5
20260903084819 58 45 0.0 0.0 0.00 0.00 0.00 1013.4
20260903084719 58 45 0.0 0.0 0.00 0.00 0.00 1013.4
20260903084619 58 45 0.0 0.0 0.00 0.00 0.00 1013.5
20260903084518 58 45 0.0 0.0 0.00 0.00 0.00 1013.5
20260903084419 58 22 0.0 0.0 0.00 0.00 0.00 1013.7
20260903084019 59 0 0.0 0.0 0.00 0.00 0.00 1013.6
20260903083619 59 0 0.0 0.0 0.00 0.00 0.00 1013.7
20260903083519 59 0 0.0 0.0 0.00 0.00 0.00 1013.8
20260903083119 59 0 0.0 0.0 0.00 0.00 0.00 1013.8
20260903082719 59 337 0.0 0.0 0.00 0.00 0.00 1013.6
20260903080819 60 337 0.0 0.0 0.00 0.00 0.00 1013.7
20260903075219 60 337 0.0 0.0 0.00 0.00 0.00 1013.9
20260903073619 60 315 0.0 0.0 0.00 0.00 0.00 1013.7
20260903072919 60 337 0.0 0.0 0.00 0.00 0.00 1013.7
20260903072819 60 315 0.0 0.0 0.00 0.00 0.00 1013.8
20260903072718 60 337 0.0 0.0 0.00 0.00 0.00 1013.7
20260903071719 60 0 0.0 0.0 0.00 0.00 0.00 1013.6
20260903071319 60 315 0.0 0.0 0.00 0.00 0.00 1013.7
20260903070919 60 337 0.0 0.0 0.00 0.00 0.00 1013.5
20260903070819 60 337 0.0 0.0 0.00 0.00 0.00 1013.6
20260903070119 61 315 0.0 0.0 0.00 0.00 0.00 1013.5
20260903065718 61 0 0.0 0.0 0.00 0.00 0.00 1013.3
20260903065618 61 0 0.0 0.0 0.00 0.00 0.00 1013.6
20260903065218 61 292 0.0 0.0 0.00 0.00 0.00 1013.6
20260903065119 61 292 0.0 0.0 0.00 0.00 0.00 1013.6
20260903065018 61 0 0.0 0.0 0.00 0.00 0.00 1013.6
20260903064619 61 22 0.0 1.0 0.00 0.00 0.00 1013.5
20260903064518 61 337 0.0 1.0 0.00 0.00 0.00 1013.5
20260903063819 61 0 0.0 0.0 0.00 0.00 0.00 1013.5
20260903063719 61 0 0.0 0.0 0.00 0.00 0.00 1013.4
20260903063618 61 22 0.0 0.0 0.00 0.00 0.00 1013.5
20260903062919 60 0 0.0 0.0 0.00 0.00 0.00 1013.5
20260903062819 60 0 0.0 0.0 0.00 0.00 0.00 1013.3
20260903062718 60 0 0.0 0.0 0.00 0.00 0.00 1013.5
20260903062619 60 0 0.0 0.0 0.00 0.00 0.00 1013.5
20260903062219 60 157 0.0 0.0 0.00 0.00 0.00 1013.5
20260903062119 60 157 0.0 0.0 0.00 0.00 0.00 1013.3
20260903062018 60 157 0.0 0.0 0.00 0.00 0.00 1013.3
20260903061619 60 157 0.0 0.0 0.00 0.00 0.00 1013.3
20260903061519 60 157 0.0 0.0 0.00 0.00 0.00 1013.3
20260903061418 60 157 0.0 0.0 0.00 0.00 0.00 1013.4
20260903060718 60 157 0.0 0.0 0.00 0.00 0.00 1013.5
20260903060619 60 157 0.0 0.0 0.00 0.00 0.00 1013.4
20260903060519 60 157 0.0 0.0 0.00 0.00 0.00 1013.4
20260903055819 60 157 0.0 0.0 0.00 0.00 0.00 1013.5
20260903055418 61 157 0.0 0.0 0.00 0.00 0.00 1013.5
20260903054718 61 112 0.0 0.0 0.00 0.00 0.00 1013.4
20260903054619 61 112 0.0 0.0 0.00 0.00 0.00 1013.4
20260903052119 63 135 0.0 0.0 0.00 0.00 0.00 1013.1
20260903051719 63 135 0.0 0.0 0.00 0.00 0.00 1013.1
20260903050719 65 202 0.0 0.0 0.00 0.00 0.00 1013.1
20260903050619 65 202 0.0 0.0 0.00 0.00 0.00 1013.2
20260903050519 65 202 0.0 0.0 0.00 0.00 0.00 1013.2
20260903050119 66 202 0.0 0.0 0.00 0.00 0.00 1013.1
20260903045119 66 180 0.0 0.0 0.00 0.00 0.00 1013.2
20260903045019 66 180 0.0 1.0 0.00 0.00 0.00 1013.3
20260903044919 66 202 0.0 0.0 0.00 0.00 0.00 1013.2
20260903044819 67 270 0.0 0.0 0.00 0.00 0.00 1013.2
20260903043520 67 225 0.0 1.0 0.00 0.00 0.00 1013.2
20260903043119 68 180 1.0 1.0 0.00 0.00 0.00 1013.2
20260903042419 68 202 0.0 0.0 0.00 0.00 0.00 1013.1
20260903042319 68 225 1.0 2.0 0.00 0.00 0.00 1013.2
20260903042219 68 202 0.0 1.0 0.00 0.00 0.00 1013.2
20260903042119 68 225 1.0 3.0 0.00 0.00 0.00 1013.2
20260903041719 68 157 0.0 0.0 0.00 0.00 0.00 1013.2
20260903041019 68 180 2.0 3.0 0.00 0.00 0.00 1013.3
20260903040919 68 225 1.0 2.0 0.00 0.00 0.00 1013.2
20260903040819 68 225 1.0 2.0 0.00 0.00 0.00 1013.3
20260903040419 68 292 1.0 2.0 0.00 0.00 0.00 1013.1
20260903035918 68 225 1.0 2.0 0.00 0.00 0.00 1013.2
20260903034619 69 202 0.0 1.0 0.00 0.00 0.00 1012.9
20260903034219 69 202 2.0 3.0 0.00 0.00 0.00 1012.9
20260903034119 69 180 1.0 2.0 0.00 0.00 0.00 1012.8
20260903033719 69 225 2.0 3.0 0.00 0.00 0.00 1012.7
20260903033019 69 202 2.0 4.0 0.00 0.00 0.00 1012.9
20260903032319 70 202 1.0 3.0 0.00 0.00 0.00 1012.5
20260903032222 70 202 2.0 4.0 0.00 0.00 0.00 1012.6
20260903032119 70 225 1.0 4.0 0.00 0.00 0.00 1012.4
20260903030818 71 225 2.0 3.0 0.00 0.00 0.00 1012.3
20260903030719 71 225 1.0 3.0 0.00 0.00 0.00 1012.4
20260903030619 71 225 3.0 4.0 0.00 0.00 0.00 1012.4
20260903025619 72 225 1.0 3.0 0.00 0.00 0.00 1012.4
20260903025519 72 225 3.0 5.0 0.00 0.00 0.00 1012.3
20260903025119 72 225 2.0 3.0 0.00 0.00 0.00 1012.3
20260903025019 72 180 3.0 4.0 0.00 0.00 0.00 1012.4
20260903023419 73 225 2.0 3.0 0.00 0.00 0.00 1012.1
20260903023319 73 180 1.0 2.0 0.00 0.00 0.00 1012.1
20260903022620 74 225 2.0 4.0 0.00 0.00 0.00 1012.1
20260903021619 74 225 3.0 4.0 0.00 0.00 0.00 1012.2
20260903021219 74 225 4.0 4.0 0.00 0.00 0.00 1012.0
20260903021119 74 225 4.0 6.0 0.00 0.00 0.00 1012.2
20260903020119 75 247 3.0 4.0 0.00 0.00 0.00 1012.1
20260903015719 75 225 3.0 5.0 0.00 0.00 0.00 1012.1